Miscellaneous Local Product
Issued by NWS North Platte, NE

Home | Current Version | Previous Version | Graphics & Text | Print | Product List | Glossary On
Versions: 1 2 3 4 5 6 7 8 9 10 11 12 13 14 15 16 17 18 19 20 21 22 23 24 25 26 27 28 29 30 31 32 33 34 35 36 37 38 39 40 41 42 43 44 45 46 47 48 49 50
000
AXUS43 KLBF 290310
MISLBF


WESTERN AND NORTH CENTRAL NEBRASKA HOURLY WEATHER ROUNDUP
NATIONAL WEATHER SERVICE NORTH PLATTE NE
1000 PM CDT SUN JUN 28 2015

***STATIONS NOT REPORTING VARIABLES SUCH AS SKY/WEATHER OR
PRESSURE ARE PROVIDED BY THE NEBRASKA DEPARTMENT OF
ROADS...RAWS...AND APRS NETWORKS...AND ARE NOT UNDER
NATIONAL WEATHER SERVICE QUALITY CONTROL***

...OBSERVATIONS IN AND NEAR THE EASTERN PANHANDLE OF NEBRASKA...

CITY           SKY/WX    TMP DP  RH WIND       PRES   REMARKS
PINE RIDGE     CLEAR     67  60  78 E6        30.07R
CHADRON        PTCLDY    73  64  73 NE3       30.07R
ALLIANCE       PTCLDY    71  59  65 E8        30.10R
SIDNEY         CLEAR     69  55  60 E5        30.13R
WHITECLAY        N/A     72  59  63 CALM        N/A
CRESCENT LAKE    N/A     75  54  47 E6          N/A
BIG SPRINGS      N/A     76  57  51 E3          N/A
$$

...OBSERVATIONS IN NORTH CENTRAL NEBRASKA...

CITY           SKY/WX    TMP DP  RH WIND       PRES   REMARKS
VALENTINE      CLEAR     73  57  57 N5        30.03R
THEDFORD       CLEAR     72  60  65 CALM      30.05R
AINSWORTH      CLEAR     68  53  58 N5        30.03R
O`NEILL        PTCLDY    67  59  75 NW3       29.99R
ORD            CLEAR     66  57  72 NW3       29.98R
BROKEN BOW     CLEAR     67  58  72 N3        30.01R
VALENTINE NWR    N/A     74  57  55 CALM        N/A
SPRINGVIEW       N/A     67  60  79 CALM        N/A
HALSEY           N/A     74  57  54 CALM        N/A
BREWSTER         N/A     76  55  48 CALM        N/A
ROSE             N/A     82  72  71 NE5         N/A
NEWPORT          N/A     72  59  63 CALM        N/A
SARGENT          N/A     70  57  62 CALM        N/A
CHAMBERS         N/A     65  55  69 CALM        N/A
EWING            N/A     69  59  71 CALM        N/A
$$

...OBSERVATIONS IN SOUTHWEST NEBRASKA AND FAR NORTHEAST COLORADO...

CITY           SKY/WX    TMP DP  RH WIND       PRES   REMARKS
WRAY           FAIR      76  51  42 E3        30.09R
HOLYOKE        FAIR      73  55  53 E6        30.08S
IMPERIAL       MOCLDY    73  59  61 E8        30.05F
OGALLALA       MOCLDY    74  57  56 CALM      30.06R
NORTH PLATTE   PTCLDY    69  59  70 E5        30.03R
MCCOOK         PTCLDY    75  58  55 NE7       30.01S
LEXINGTON      CLEAR     71  61  70 CALM      30.02R
PAXTON           N/A     74  60  62 CALM        N/A
GOTHENBURG       N/A     76  53  44 N3          N/A
CALLAWAY         N/A     68  60  74 N3          N/A
$$

...NORTH PLATTE AREA...

CITY           SKY/WX    TMP DP  RH WIND       PRES   REMARKS
AIRPORT        PTCLDY    69  59  70 E5        30.03R
DOWNTOWN         N/A     77  60  56 CALM        N/A
SANDRIDGE        N/A     75  59  58 CALM        N/A
HILLCREST        N/A     75  58  55 E9          N/A
$$

...SOME WEATHER OBSERVATIONS FROM AROUND THE REGION...

CITY           SKY/WX    TMP DP  RH WIND       PRES   REMARKS
DENVER         CLOUDY    63  56  78 SE10      30.21R
LARAMIE        MOCLDY    70  49  47 SE6       30.33R
CHEYENNE       PTCLDY    71  54  54 S3        30.25R
SCOTTSBLUFF    PTCLDY    73  56  54 MISG      30.10R
RAPID CITY     CLEAR     71  64  78 CALM      30.06S
PIERRE         CLEAR     68  58  70 NE6       29.96S
WINNER         FAIR      71  54  54 NE5       29.99S
SIOUX FALLS    PTCLDY    71  60  68 W6        29.90R
OMAHA          PTCLDY    74  61  63 N3        29.87R
GRAND ISLAND   PTCLDY    69  55  60 N6        29.98R
KANSAS CITY    PTCLDY    74  61  63 W5        29.85R
WICHITA        PTCLDY    87  57  35 N9        29.89R
HAYS           CLEAR     79  50  36 NE8       29.97R
LIBERAL        CLEAR     84  63  48 CALM      30.02R
GOODLAND       CLEAR     73  53  49 E7        30.07S
$$



USA.gov is the U.S. government's official web portal to all federal, state and local government web resources and services.